TimeEDT,TemperatureF,Dew PointF,Humidity,Sea Level PressureIn,VisibilityMPH,Wind Direction,Wind SpeedMPH,Gust SpeedMPH,PrecipitationIn,Events,Conditions,WindDirDegrees,DateUTC
12:53 AM,84.0,77.0,79,30.07,10.0,SSE,3.5,-,N/A,,Partly Cloudy,150,2013-08-19 04:53:00
1:18 AM,84.2,77.0,79,30.07,10.0,Calm,Calm,-,N/A,,Mostly Cloudy,0,2013-08-19 05:18:00
1:53 AM,81.0,75.0,82,30.06,10.0,WNW,4.6,-,N/A,,Overcast,300,2013-08-19 05:53:00
2:34 AM,80.6,75.2,84,30.04,10.0,East,6.9,-,N/A,,Scattered Clouds,80,2013-08-19 06:34:00
2:53 AM,81.0,75.0,82,30.04,10.0,East,5.8,-,N/A,,Partly Cloudy,90,2013-08-19 06:53:00
3:53 AM,82.9,75.9,79,30.03,10.0,East,9.2,-,N/A,,Unknown,90,2013-08-19 07:53:00
4:53 AM,82.9,75.0,77,30.02,10.0,East,11.5,-,N/A,,Unknown,80,2013-08-19 08:53:00
5:53 AM,82.9,75.9,79,30.02,10.0,East,11.5,-,N/A,,Unknown,100,2013-08-19 09:53:00
6:53 AM,82.9,75.9,79,30.01,10.0,East,15.0,-,N/A,,Unknown,100,2013-08-19 10:53:00
7:53 AM,84.0,75.0,74,30.01,10.0,ESE,15.0,20.7,N/A,,Scattered Clouds,110,2013-08-19 11:53:00
8:53 AM,86.0,75.0,70,30.02,10.0,East,13.8,-,N/A,,Scattered Clouds,100,2013-08-19 12:53:00
9:53 AM,87.1,73.9,65,30.04,10.0,ESE,13.8,-,N/A,,Scattered Clouds,120,2013-08-19 13:53:00
10:53 AM,88.0,75.9,67,30.05,10.0,ESE,13.8,-,N/A,,Scattered Clouds,110,2013-08-19 14:53:00
11:53 AM,90.0,75.9,63,30.05,10.0,ESE,13.8,-,N/A,,Scattered Clouds,120,2013-08-19 15:53:00
12:53 PM,89.1,75.9,65,30.04,10.0,ESE,13.8,20.7,N/A,,Scattered Clouds,110,2013-08-19 16:53:00
1:53 PM,89.1,75.9,65,30.03,10.0,East,13.8,-,N/A,,Scattered Clouds,100,2013-08-19 17:53:00
2:53 PM,89.1,75.0,63,30.02,10.0,East,13.8,-,N/A,,Scattered Clouds,100,2013-08-19 18:53:00
3:53 PM,88.0,75.9,67,30.00,10.0,ESE,12.7,-,N/A,,Scattered Clouds,110,2013-08-19 19:53:00
4:53 PM,87.1,73.9,65,29.99,10.0,ESE,12.7,-,N/A,,Scattered Clouds,110,2013-08-19 20:53:00
5:53 PM,84.9,75.9,74,29.99,10.0,East,11.5,-,0.02,,Scattered Clouds,100,2013-08-19 21:53:00
6:53 PM,86.0,75.0,70,29.99,10.0,ESE,8.1,-,N/A,,Unknown,110,2013-08-19 22:53:00
7:53 PM,84.0,73.9,72,29.99,10.0,East,5.8,-,N/A,,Unknown,100,2013-08-19 23:53:00
8:53 PM,84.0,73.9,72,30.01,10.0,East,4.6,-,N/A,,Unknown,90,2013-08-20 00:53:00
9:53 PM,82.9,75.0,77,30.02,10.0,East,5.8,-,N/A,,Unknown,90,2013-08-20 01:53:00
10:53 PM,84.0,75.0,74,30.04,10.0,East,8.1,-,N/A,,Scattered Clouds,90,2013-08-20 02:53:00
11:53 PM,82.9,75.0,77,30.04,10.0,East,5.8,-,N/A,,Partly Cloudy,90,2013-08-20 03:53:00